RH
72 71 37 13 13 6 7 5 7 8 9 11 10 15 21 34 45 54 57 54 50 44 33 22 20 28 51 69 72 72 71 69 70 74 75 75 75 76 77 78 76 76 76 73 69 63 59 59 61 62 62 63 62 60 52 43 40 42 52 66 72 66 58 50 38 27 23 25 32 41 45 33 21 20 24 35 43 40 34 24 21 24 19 17 19
69 69 38 17 15 9 7 5 7 8 10 11 11 14 19 30 42 53 52 47 42 31 19 15 24 42 64 71 71 71 71 70 72 75 76 76 76 77 78 77 76 76 73 68 63 58 54 56 63 66 66 66 60 45 27 17 14 15 21 31 40 41 38 36 30 27 26 26 28 30 30 23 17 16 18 25 30 29 26 20 20 20 14 14 14
68 65 37 21 18 9 6 6 6 8 11 11 12 13 19 27 37 45 43 42 35 18 13 21 39 59 69 68 68 68 69 72 73 75 75 76 77 77 77 76 76 72 67 63 56 54 56 62 68 70 71 67 48 22 9 9 12 11 8 10 18 25 30 41 49 52 50 46 36 21 15 13 12 13 15 17 19 19 18 17 16 15 12 13 12
72 63 37 25 22 11 6 6 6 9 10 12 13 13 19 25 32 36 37 37 28 23 35 48 58 67 67 65 66 68 71 73 75 75 75 75 76 77 75 73 72 69 65 58 52 54 60 66 70 72 70 56 29 12 9 12 22 24 19 17 17 24 39 55 65 67 67 70 58 38 19 8 11 11 13 14 13 14 13 14 12 13 12 12 12
70 57 37 29 23 13 6 6 7 9 10 13 13 14 19 23 28 30 33 36 40 52 64 68 68 69 67 68 68 70 74 74 75 76 77 75 74 75 73 70 68 67 60 53 60 67 67 67 72 76 70 54 30 18 12 9 19 23 20 14 15 37 58 65 66 67 69 75 74 73 44 7 10 11 10 12 10 12 11 12 11 11 11 11 12
68 53 39 32 25 15 7 6 7 9 10 13 15 16 19 22 26 27 34 48 60 69 71 70 69 71 72 74 73 74 75 75 75 75 76 74 74 72 68 67 65 64 52 49 69 77 75 73 73 74 71 63 39 20 13 9 10 10 11 5 19 52 68 67 67 69 68 71 71 87 64 9 8 10 8 11 9 11 10 11 10 11 11 11 11
61 48 43 35 26 16 7 7 7 10 11 14 16 17 20 22 24 30 46 61 66 68 70 71 73 75 76 78 76 74 74 74 74 73 74 74 72 67 63 63 62 59 43 47 71 76 77 76 70 64 58 51 30 16 12 9 7 7 8 7 28 54 64 64 63 63 63 69 68 81 65 14 7 10 8 10 9 11 10 11 10 11 12 11 11
55 43 48 40 27 16 8 6 7 10 12 15 18 19 21 21 27 42 57 63 63 67 71 74 77 78 78 78 76 74 72 72 71 71 72 70 67 62 61 59 60 56 37 46 70 75 76 69 58 49 39 29 18 13 10 8 7 7 8 15 35 49 59 62 61 61 58 64 66 77 63 21 10 9 10 11 10 11 11 12 11 11 11 11 11
60 48 52 45 29 18 8 6 8 10 12 15 19 20 21 23 36 52 60 60 63 69 74 77 79 78 78 78 76 74 71 71 70 70 68 63 61 58 58 56 57 49 32 47 70 72 67 57 45 33 25 19 15 11 9 8 8 7 9 20 35 44 55 60 61 62 64 67 65 73 57 21 11 10 11 11 11 11 11 11 10 11 10 11 10
76 61 54 47 32 19 9 6 8 10 12 16 20 21 22 27 41 54 59 62 66 72 78 78 78 77 77 78 77 73 69 69 67 65 60 52 50 50 51 48 44 31 23 47 69 66 55 44 33 24 21 18 13 10 9 8 9 9 10 21 34 45 52 54 56 56 62 61 58 64 44 17 12 10 10 10 10 10 10 10 10 10 10 10 9
88 70 56 49 34 21 10 6 7 10 13 17 22 22 25 32 42 51 59 67 70 73 78 79 79 78 76 76 74 70 66 65 60 52 41 33 31 32 32 27 21 13 16 44 61 54 43 33 25 22 20 16 12 10 10 9 10 9 12 23 36 50 57 56 57 56 58 58 58 54 31 15 13 9 9 9 9 10 10 10 10 9 9 10 10
93 75 61 50 36 24 11 6 7 11 14 19 23 24 29 36 43 51 61 70 71 72 77 79 80 78 75 72 70 67 62 58 46 31 20 14 13 12 13 9 8 8 12 35 50 45 36 26 22 23 19 15 12 11 11 11 11 11 16 25 36 51 57 57 58 58 58 63 66 49 27 19 14 12 10 10 10 11 11 10 11 10 11 12 12
91 76 62 50 39 27 13 6 8 11 15 19 23 26 32 38 45 54 63 70 71 71 75 78 79 77 74 70 68 65 58 47 28 14 9 6 6 5 6 5 6 7 10 25 40 41 33 23 21 22 19 15 13 11 11 11 11 12 18 23 34 49 54 55 57 60 59 63 65 46 32 25 18 17 14 13 13 11 12 12 11 11 12 13 13
88 79 63 49 40 31 17 8 7 12 16 19 24 28 32 38 48 59 65 68 67 67 71 75 77 76 74 72 68 62 50 32 14 7 6 5 6 5 5 5 6 7 12 22 32 36 29 20 20 22 18 15 13 12 12 11 12 14 18 23 34 47 55 58 59 60 59 64 64 41 29 27 24 23 20 19 18 17 17 16 15 13 12 12 13
84 78 63 48 40 34 23 10 7 12 17 20 24 27 30 37 51 62 66 67 64 63 68 71 73 71 71 71 65 54 39 21 9 5 5 6 5 6 5 4 5 6 13 23 28 29 24 19 21 21 18 15 14 13 13 14 15 16 19 24 36 50 58 60 60 61 61 66 63 46 35 28 26 26 25 25 25 26 27 27 26 22 19 18 15
83 75 59 48 41 36 27 15 8 11 17 22 23 26 29 34 46 59 64 65 64 63 68 69 69 67 66 63 54 43 29 14 7 5 5 7 6 5 5 4 5 7 13 23 26 24 22 21 21 22 19 16 15 14 14 16 18 20 22 25 33 47 58 61 63 66 64 66 63 54 45 30 26 27 27 27 28 30 32 35 36 35 34 30 26
83 76 60 48 41 35 28 19 10 9 16 21 23 26 29 33 41 55 63 64 67 67 67 68 66 63 61 53 41 32 21 10 6 6 6 6 7 6 5 5 4 7 12 21 25 22 22 22 23 23 20 17 17 16 16 18 21 23 24 26 32 42 56 62 65 65 61 65 63 53 45 31 27 28 27 27 27 31 32 35 37 40 41 39 36
82 80 66 51 45 38 29 22 14 9 12 19 24 26 30 36 41 53 62 64 67 68 65 66 64 60 54 43 33 23 13 7 5 6 7 7 7 7 6 6 5 6 10 18 24 23 23 24 25 24 21 19 18 18 19 21 24 26 27 28 33 43 56 61 60 58 57 65 62 55 49 34 28 29 27 26 26 30 33 35 38 40 43 44 43
84 82 68 55 51 44 33 24 17 10 9 16 20 25 32 37 45 53 60 63 66 66 61 59 57 55 49 39 31 21 12 8 7 6 6 7 8 8 8 6 7 5 6 13 21 24 24 26 27 27 24 21 21 22 22 23 25 29 32 31 33 43 56 63 62 62 64 67 60 58 54 35 30 31 27 28 27 30 33 36 40 42 45 47 47
87 81 71 67 61 50 41 29 20 13 9 11 12 22 31 43 57 58 57 60 65 65 57 53 52 49 43 38 31 21 16 9 6 8 7 7 8 8 9 8 8 7 7 7 14 21 24 26 29 32 29 27 27 28 29 29 29 32 35 36 35 38 49 59 59 61 66 67 57 53 54 40 33 31 29 30 29 30 32 35 40 44 48 48 48
88 84 80 84 72 55 50 38 28 18 11 10 10 15 28 54 73 68 63 59 62 65 55 54 51 44 44 48 46 39 40 30 13 8 8 8 8 8 9 9 9 8 8 7 8 13 19 24 28 34 36 36 37 36 37 35 32 32 33 36 35 35 43 45 47 60 65 63 58 55 56 46 36 32 31 32 32 35 34 35 40 45 50 50 50
86 83 82 88 76 63 59 48 41 29 16 11 11 11 21 56 76 73 70 60 60 61 54 57 51 49 64 72 70 66 68 62 41 21 10 8 8 8 9 8 10 9 9 9 7 8 11 16 20 26 31 34 36 35 34 33 33 32 30 30 29 31 36 36 45 63 66 60 60 60 58 47 37 35 34 35 38 41 40 38 40 46 51 52 53
82 79 81 84 77 77 72 61 53 43 28 14 13 10 15 47 66 65 66 63 60 61 59 62 57 56 77 87 81 82 82 75 68 52 23 13 12 8 11 10 10 10 9 10 9 9 9 10 14 15 19 22 24 26 29 36 44 46 43 36 31 28 30 43 53 57 61 62 63 64 59 48 40 40 40 42 46 48 46 41 40 45 51 53 54
79 79 84 83 82 88 87 79 68 60 47 28 17 9 16 38 51 48 55 66 62 67 70 68 69 59 72 90 82 87 92 78 79 73 35 21 23 13 16 15 14 16 13 14 11 9 10 8 10 9 11 12 15 31 47 58 62 59 59 53 43 34 37 59 66 59 63 67 66 64 60 52 46 46 46 47 51 51 48 44 44 46 50 53 54
81 82 86 87 88 91 91 90 82 78 68 53 31 11 21 38 47 43 44 65 68 76 78 72 78 64 68 85 81 87 92 81 73 63 40 33 35 26 30 27 26 32 23 19 18 22 27 20 16 20 24 18 17 40 62 71 69 62 62 61 53 47 56 73 71 64 66 66 67 67 65 58 51 50 49 50 54 55 53 50 49 47 48 51 54
84 86 89 90 93 91 89 89 87 88 80 72 51 26 36 48 61 56 43 63 74 81 79 73 80 72 75 81 85 86 78 85 72 55 65 68 60 57 60 52 45 51 40 33 40 51 55 43 40 49 54 47 40 51 64 67 68 65 62 61 60 61 70 77 71 67 68 68 70 69 68 62 54 53 51 50 54 57 58 57 56 53 49 49 54
87 89 92 94 97 93 90 88 87 91 85 83 71 53 60 64 70 66 57 66 72 82 81 78 84 79 81 82 88 76 64 91 77 59 85 84 77 81 79 71 65 71 69 64 69 75 70 64 66 68 70 69 64 64 64 61 62 65 63 61 64 70 75 76 73 71 70 71 73 71 70 65 58 58 55 52 55 58 61 61 62 59 55 51 52
87 90 93 96 98 93 91 88 87 91 87 89 81 68 73 73 72 71 73 75 69 81 82 78 84 75 78 86 86 73 71 91 69 55 77 75 75 81 75 73 73 79 86 83 82 83 78 75 76 75 75 74 73 70 67 63 61 60 60 60 62 66 70 74 75 74 73 74 75 76 75 67 62 63 60 57 58 59 61 62 62 62 61 58 54
87 91 94 96 95 92 90 87 87 87 86 89 78 70 75 71 71 71 76 78 69 75 77 76 82 74 76 86 81 78 83 80 61 59 73 76 76 76 73 69 69 78 90 89 83 84 83 78 76 75 76 75 74 75 74 73 69 63 58 58 60 62 65 69 71 71 74 77 77 78 77 70 65 68 66 61 60 60 62 62 63 64 62 63 60
87 89 92 94 92 92 88 85 85 81 83 83 73 72 72 69 72 68 70 76 71 73 76 78 83 77 80 84 76 82 87 74 69 73 76 78 74 75 77 67 66 76 84 85 82 84 84 82 82 82 82 79 76 76 77 78 77 74 66 61 62 63 66 68 68 69 73 76 80 79 77 74 69 69 67 64 62 62 63 62 64 66 63 65 65
88 90 93 93 90 90 86 86 85 79 78 74 72 72 68 74 72 64 75 76 70 78 80 76 77 79 88 80 64 73 81 74 79 81 76 74 68 69 72 70 72 75 79 79 80 82 82 81 83 86 84 80 77 74 75 76 76 77 75 71 67 64 65 68 71 77 76 74 79 79 74 75 73 71 70 69 66 62 61 61 65 68 66 69 70
89 90 92 91 88 89 85 86 85 78 75 71 73 71 68 77 68 68 82 69 65 80 82 75 72 84 91 66 56 76 79 78 84 78 75 73 64 60 63 72 78 80 82 80 78 79 80 80 78 82 82 80 81 78 77 76 75 76 77 76 72 68 67 69 74 78 78 77 81 80 75 76 78 76 71 68 68 66 63 62 66 71 72 74 72
89 88 89 87 87 90 86 86 84 76 75 72 72 71 73 74 69 78 79 69 77 78 76 75 69 86 90 62 66 90 85 83 84 72 72 70 63 63 66 72 77 81 83 80 81 81 80 80 80 83 83 84 84 82 84 83 80 80 80 78 75 73 71 70 73 74 77 81 83 81 79 78 78 77 70 68 72 72 70 67 67 72 75 77 76
85 86 86 86 88 89 86 85 83 77 75 75 72 72 77 74 76 85 73 76 84 68 74 80 71 86 88 71 77 90 88 87 81 71 71 64 55 58 58 63 71 78 84 82 80 80 80 80 80 80 80 83 83 83 88 84 82 82 80 80 79 75 74 72 73 75 77 81 86 86 85 82 78 77 73 73 77 75 73 72 71 73 76 78 79
84 88 88 87 87 86 83 82 80 76 74 77 75 73 80 81 85 90 76 73 72 67 86 89 84 91 82 73 79 84 88 89 84 79 78 69 63 68 70 75 79 79 82 79 74 77 80 80 81 79 79 82 82 85 88 83 85 86 80 80 80 76 74 75 75 79 79 81 87 90 90 86 84 87 82 74 74 75 76 76 76 77 77 80 81
87 88 91 89 87 86 85 86 82 76 74 78 79 77 84 84 82 89 81 69 69 78 91 86 86 91 80 74 77 81 85 86 85 82 82 81 82 88 89 86 84 79 77 73 72 77 82 83 83 80 78 78 78 83 86 85 86 84 78 75 76 75 75 75 73 76 79 81 84 85 87 86 89 94 86 77 77 78 78 78 78 78 78 80 81
84 85 90 92 93 93 94 96 89 83 80 81 85 81 81 82 80 85 81 73 80 86 87 89 90 92 89 81 76 79 80 80 81 79 81 85 87 91 90 84 80 76 74 72 75 80 83 83 81 78 76 74 73 75 78 81 81 77 76 74 73 73 72 73 73 73 76 77 80 81 83 85 89 90 83 83 86 82 78 77 78 80 81 80 79
84 86 88 93 96 96 98 96 90 90 88 84 89 83 76 83 84 81 75 72 81 81 79 91 95 94 95 90 84 82 78 79 82 84 84 84 87 88 86 84 79 75 73 73 78 84 84 80 77 76 74 71 70 70 72 75 76 75 75 75 73 72 71 72 74 76 76 75 77 80 85 87 88 87 81 79 79 78 76 76 78 81 84 83 80
89 89 91 92 91 91 93 94 93 94 93 89 89 83 76 81 79 73 67 64 71 74 71 77 83 83 87 91 91 85 83 85 86 87 84 83 88 87 83 82 78 76 75 74 79 85 86 81 77 74 71 71 69 68 71 73 75 74 72 72 71 70 70 70 72 74 75 75 75 77 83 85 85 87 83 73 73 79 80 79 79 79 81 82 82
95 94 97 94 90 90 93 95 96 93 88 82 77 75 74 71 66 63 63 68 75 77 67 62 69 78 83 82 80 83 87 87 86 86 83 81 83 81 79 79 79 79 78 78 80 82 81 78 77 74 72 74 73 73 74 74 73 71 71 73 71 67 66 66 67 69 70 71 72 75 76 76 76 83 85 77 78 87 89 85 81 80 79 78 81
99 98 100 98 95 96 97 96 96 87 73 64 66 69 67 64 63 61 69 81 81 74 66 63 73 84 84 73 70 81 85 83 82 80 79 77 77 78 78 80 82 81 82 82 80 79 77 77 78 78 77 78 77 78 79 78 76 76 77 75 71 70 69 69 65 63 68 70 73 74 73 70 66 72 81 80 81 87 90 85 80 80 78 76 78
99 100 100 99 98 97 96 94 88 73 58 56 62 64 63 67 69 64 72 80 70 63 67 70 73 74 72 67 69 76 74 74 78 76 77 78 76 77 79 81 82 81 81 82 81 82 80 80 80 78 80 81 79 80 84 83 81 82 82 77 72 71 68 68 67 68 71 70 71 73 72 73 70 70 74 74 76 78 80 81 79 78 76 76 77
99 100 99 98 99 98 94 87 73 60 61 64 63 65 69 73 70 65 71 74 64 60 66 71 70 62 62 68 70 70 63 65 79 81 78 77 75 76 78 79 81 81 82 82 83 84 82 83 83 80 79 80 82 84 86 85 83 82 83 82 80 75 67 68 72 73 70 66 68 72 72 73 73 71 71 72 74 73 73 77 80 81 81 81 79
100 99 99 99 100 99 90 76 65 65 75 75 68 71 75 74 72 70 72 73 70 68 66 70 70 62 65 76 80 79 72 71 83 88 83 79 76 76 78 77 81 84 83 84 87 87 86 86 84 83 81 81 83 82 83 84 84 84 86 87 84 78 72 71 70 65 64 67 70 72 73 73 74 74 73 73 73 74 76 76 79 83 85 88 86
100 99 98 98 100 96 83 73 72 73 73 69 66 68 69 68 68 69 70 71 73 72 63 67 77 76 80 90 93 94 91 87 86 87 87 81 77 79 80 79 84 87 84 85 88 86 84 87 88 86 84 86 83 76 74 78 83 86 87 88 87 84 78 75 74 66 63 69 72 72 74 75 77 78 77 76 74 76 78 77 78 81 83 85 88
100 99 96 98 98 90 79 76 77 75 71 67 66 67 68 68 67 68 72 74 76 73 65 69 79 81 82 85 87 89 91 90 85 86 89 86 85 86 84 84 87 88 87 85 84 81 81 86 89 85 81 82 79 74 73 74 77 83 86 87 89 89 84 82 85 79 67 62 65 72 75 75 79 80 81 82 82 82 81 80 81 81 81 81 82
99 99 96 97 93 85 81 78 77 77 75 71 70 72 71 71 72 71 72 78 84 82 73 68 64 65 71 71 74 82 90 92 89 92 95 92 92 92 87 85 84 87 90 84 78 81 86 85 82 79 77 76 77 78 79 75 72 77 86 89 89 90 89 87 90 89 82 69 60 64 71 75 80 81 81 81 82 83 81 82 83 82 83 83 81
96 96 97 97 91 86 83 79 79 81 78 73 74 73 69 69 70 68 71 78 84 81 73 65 60 65 72 71 74 85 94 97 94 96 98 93 90 89 85 81 80 82 80 79 82 87 89 82 74 77 79 78 80 81 81 80 79 81 85 88 90 93 93 93 91 90 92 86 70 64 65 70 77 79 79 78 76 77 77 78 78 78 83 86 86
94 95 96 96 92 90 85 82 85 85 80 78 77 72 68 69 68 68 72 74 77 79 76 74 76 81 81 80 85 92 94 93 91 93 95 91 83 78 76 74 76 76 71 77 86 86 84 80 75 76 77 75 77 79 81 83 84 82 77 77 81 84 88 92 92 87 87 89 84 78 72 72 76 75 76 79 74 72 73 73 74 75 80 85 87
95 95 95 97 95 94 89 86 87 86 84 83 78 72 71 72 73 72 70 69 72 75 78 84 88 89 89 91 91 92 92 90 88 87 85 82 75 71 71 70 72 78 79 80 77 74 79 82 80 77 74 74 73 73 76 77 78 79 79 80 82 85 90 91 91 90 89 90 89 86 82 81 83 78 74 77 74 71 71 71 72 72 74 79 82
95 97 98 98 99 98 92 85 85 86 86 86 82 77 76 76 77 76 72 70 72 70 72 82 90 92 95 95 91 87 86 89 92 91 83 75 71 73 72 66 69 77 76 68 59 62 70 71 74 75 75 81 83 80 82 82 83 88 91 91 89 91 96 95 93 93 92 93 92 91 86 81 83 81 76 77 74 72 73 71 71 70 70 73 76
Wind_Speed
13 12 13 13 12 11 11 11 10 10 10 9 11 13 15 16 16 15 13 11 10 10 10 11 14 16 15 13 12 12 12 11 12 12 12 12 12 12 12 12 12 12 11 11 10 10 9 9 9 9 10 9 9 8 7 6 5 4 4 4 4 5 5 6 6 6 7 6 4 5 6 6 6 7 8 8 8 8 9 11 12 11 11 13 13
14 13 15 15 13 12 11 11 10 10 11 10 10 13 15 16 16 14 13 12 12 11 12 14 16 16 14 12 11 11 11 11 11 11 12 11 11 11 12 12 11 11 11 10 9 9 9 9 9 9 9 9 9 8 7 6 4 3 3 3 4 5 7 9 10 12 14 15 12 10 8 7 7 7 8 8 8 8 9 10 10 9 10 12 11
13 14 16 15 14 12 12 11 10 10 11 10 10 13 15 16 16 15 14 13 13 13 15 17 16 15 13 12 11 11 10 10 11 11 11 11 10 10 10 10 10 10 10 9 9 9 9 10 9 9 9 9 9 9 9 8 8 6 6 6 8 10 11 15 18 19 19 19 17 15 12 9 8 8 8 8 8 7 8 9 9 9 9 10 10
14 16 18 16 14 13 12 12 10 10 11 11 11 13 15 16 16 15 15 15 15 16 17 16 15 14 12 11 10 10 10 10 10 10 10 10 10 10 9 9 9 9 9 9 9 9 10 10 9 9 9 9 9 10 11 11 11 11 12 12 14 15 18 21 23 23 22 20 17 16 15 10 9 8 9 8 8 7 7 8 8 7 8 9 8
16 18 20 18 16 14 13 12 11 11 11 12 12 13 15 16 16 16 16 16 17 16 16 15 14 13 12 11 10 10 10 10 10 10 10 9 9 9 8 8 8 9 8 8 9 10 10 9 9 9 9 10 10 10 11 12 13 14 16 17 18 20 22 23 23 22 22 20 16 15 14 11 9 8 9 8 8 8 7 7 7 7 7 8 7
15 20 20 18 17 15 14 13 12 11 12 13 13 14 16 16 17 17 17 18 17 16 15 15 13 13 12 11 11 10 10 10 9 9 9 9 8 7 6 7 7 7 7 7 9 9 9 9 9 8 8 9 9 10 11 12 13 15 17 18 19 22 23 23 21 20 19 18 16 12 9 9 9 8 8 8 8 7 7 7 6 7 7 7 6
15 22 20 18 18 16 15 14 13 12 13 14 14 15 16 17 18 18 18 18 16 15 15 14 13 12 12 11 11 10 9 9 8 8 7 7 7 6 5 5 6 6 6 7 9 9 9 9 8 7 8 8 9 10 10 12 13 15 16 17 19 22 24 23 22 20 18 16 15 9 6 8 9 7 8 7 7 7 6 6 6 6 6 6 6
17 22 20 19 18 17 16 15 15 13 14 14 15 16 17 18 18 19 18 17 16 15 14 13 13 12 11 11 10 9 8 8 7 6 6 5 5 4 4 4 5 4 5 7 8 8 8 8 7 7 8 8 9 9 11 12 13 15 15 18 20 22 23 23 22 19 18 15 13 6 5 7 7 7 7 6 6 5 5 5 5 5 5 5 5
18 22 21 19 18 17 16 15 15 14 14 15 16 17 17 18 18 18 18 17 16 15 14 13 12 12 10 10 9 8 7 7 6 5 4 3 3 3 3 4 4 4 6 8 8 8 8 7 7 8 8 8 9 9 11 12 14 14 16 19 21 22 22 21 19 16 17 11 8 5 3 6 6 6 6 5 5 4 4 4 5 4 4 5 5
20 23 22 19 18 18 16 15 15 14 15 16 17 17 18 18 18 18 17 17 15 14 14 13 12 11 10 9 8 7 6 6 5 4 3 3 3 3 3 3 3 4 7 9 9 8 8 8 8 8 8 9 9 10 11 12 14 14 15 18 20 21 21 20 18 16 15 8 5 5 2 5 5 4 4 4 5 4 4 3 4 3 3 4 4
21 22 22 20 19 18 16 15 15 14 15 16 17 18 18 18 18 17 17 16 15 15 14 13 11 10 10 9 7 6 6 5 4 4 3 3 3 3 3 4 4 6 8 10 10 9 8 8 9 9 9 9 10 10 11 12 13 13 14 16 18 20 20 19 17 16 13 8 5 3 1 4 4 3 3 2 3 4 3 3 3 2 2 3 3
21 19 22 22 19 18 16 15 15 14 14 16 17 18 19 18 18 17 16 16 15 15 14 13 11 10 9 8 7 6 5 4 4 3 4 4 4 4 4 5 6 7 9 11 11 10 9 9 9 9 9 9 10 11 11 12 12 12 14 15 18 19 20 18 16 15 10 6 4 1 3 4 4 3 2 1 2 2 2 2 1 1 2 2 3
21 17 22 23 20 19 17 16 15 15 15 16 17 18 19 18 17 17 16 16 15 14 13 12 11 10 9 8 7 5 4 3 4 4 5 5 5 5 5 6 7 8 9 11 11 10 9 9 10 9 8 9 10 11 11 11 11 12 13 14 17 18 18 17 16 14 9 5 1 3 5 4 4 3 2 2 2 2 2 2 2 3 3 4 4
21 16 23 24 21 20 17 17 16 16 16 16 17 18 18 18 17 16 16 15 15 14 14 13 11 10 9 7 6 4 3 3 4 5 6 6 6 6 6 6 7 9 10 11 11 10 10 10 10 9 8 9 10 11 11 11 11 11 12 13 15 17 17 16 16 11 6 4 3 3 6 5 5 4 4 3 3 3 4 4 4 5 5 6 6
19 17 23 24 22 21 18 17 17 16 16 17 18 17 18 17 17 17 15 14 15 15 14 13 11 10 9 7 5 4 3 3 4 5 6 6 6 6 6 7 7 9 10 11 12 11 11 10 10 8 8 9 9 10 10 10 10 10 10 11 13 14 15 15 15 10 4 2 5 4 6 6 6 6 5 4 4 4 4 5 6 6 6 7 8
18 17 21 23 22 22 19 18 17 17 17 17 17 17 17 16 17 17 15 15 15 15 14 12 11 10 8 7 5 5 4 4 4 5 5 5 6 6 6 7 8 9 11 12 11 11 11 10 9 8 7 7 8 8 9 9 9 9 8 8 9 12 14 13 13 9 4 1 7 6 5 6 6 6 6 5 5 5 5 5 6 6 7 8 9
19 17 20 22 21 21 20 19 18 18 18 17 16 16 16 16 17 17 16 15 14 14 13 12 10 9 8 6 5 5 5 5 5 5 5 5 5 5 6 6 7 9 10 11 11 11 11 10 9 7 6 6 7 7 7 7 7 7 6 7 8 11 12 11 11 7 4 2 7 8 6 6 6 6 7 6 6 6 6 6 6 7 8 8 9
19 18 20 21 21 21 20 20 20 19 18 17 16 16 16 15 16 18 17 16 15 13 12 11 10 9 7 6 5 5 5 5 5 4 4 4 4 5 5 5 5 7 9 11 11 11 10 10 8 7 6 5 5 5 5 5 5 5 5 7 8 10 10 9 9 6 3 3 8 9 8 7 6 7 8 8 8 7 7 7 7 8 8 9 9
17 19 22 22 21 21 20 20 20 20 20 19 18 17 17 16 16 18 18 17 15 13 12 11 10 8 6 5 4 4 4 4 4 4 4 4 4 4 4 4 4 5 6 9 11 11 10 10 9 7 6 5 4 4 4 4 3 4 4 5 6 8 9 9 8 5 1 5 9 9 8 8 7 8 9 10 10 8 8 8 8 8 9 9 9
17 19 21 20 20 21 20 19 19 20 20 20 20 19 18 17 17 17 18 17 15 13 11 9 9 8 5 5 5 4 2 2 3 3 2 3 3 3 3 4 3 3 4 6 8 10 10 9 9 8 7 5 4 4 3 3 2 2 2 2 3 4 6 7 7 4 3 8 10 9 9 8 8 8 9 10 10 9 9 8 8 9 8 9 9
20 21 21 19 19 19 19 18 18 19 19 20 20 20 20 18 17 17 17 17 16 13 10 8 7 7 7 8 7 5 2 1 2 3 3 2 2 2 2 2 2 3 2 3 5 7 9 9 9 8 7 6 5 4 3 3 2 2 2 2 2 1 1 3 4 3 4 10 11 10 10 11 9 9 10 11 11 10 10 9 9 8 8 8 9
23 23 23 21 17 17 19 18 18 18 18 19 19 20 20 19 18 17 17 16 15 12 9 8 8 9 9 8 7 4 2 1 2 3 3 3 2 2 1 1 1 1 2 2 3 4 5 6 7 8 7 6 5 4 5 5 3 4 4 5 4 3 5 3 1 3 5 11 12 11 11 12 11 10 11 12 12 11 11 11 9 9 9 9 9
25 24 25 23 15 17 18 15 17 17 17 18 18 20 20 20 19 19 18 15 13 11 9 9 9 9 8 7 6 4 1 1 2 4 2 2 2 1 1 1 1 1 1 1 1 2 3 4 5 5 5 6 5 5 6 6 5 7 7 8 6 6 8 6 3 3 5 12 13 13 13 12 10 9 11 12 13 12 12 12 10 10 10 10 10
26 25 27 23 18 23 19 15 16 14 15 16 16 19 19 18 19 19 19 17 14 12 11 10 10 8 7 7 5 5 2 4 3 3 3 2 1 1 1 2 2 3 2 2 2 2 2 3 4 4 5 5 5 5 4 5 10 11 12 12 8 8 7 6 6 4 7 14 14 12 12 12 11 9 9 11 12 12 12 12 12 11 10 10 10
26 26 27 24 23 26 23 19 17 14 14 13 14 18 17 16 16 17 20 20 16 14 12 10 10 9 8 6 4 6 7 6 5 5 2 1 2 3 3 3 3 3 4 5 3 2 2 3 4 4 6 6 5 3 2 7 15 16 15 13 10 10 7 6 8 7 10 15 15 15 14 13 12 10 9 10 11 11 12 12 12 12 11 11 11
26 27 26 24 26 26 23 20 18 15 13 11 14 16 15 15 15 15 18 20 17 14 12 11 10 10 9 8 7 11 9 4 6 3 2 1 1 5 5 4 4 4 6 7 4 4 7 5 4 5 7 8 6 3 3 8 15 15 15 15 14 11 8 8 9 9 11 15 15 17 16 14 13 12 11 10 10 10 11 12 13 13 12 11 11
27 27 26 25 25 23 21 20 19 17 13 13 14 14 14 14 13 13 14 15 15 13 11 11 10 12 12 9 12 13 9 8 9 4 5 3 4 1 1 2 4 2 5 6 3 7 9 6 8 10 10 10 8 8 8 10 13 14 15 16 15 12 10 10 10 10 12 16 17 17 16 15 14 14 12 11 10 10 11 12 13 14 13 12 12
27 26 25 24 23 23 22 20 20 18 16 16 14 16 17 14 13 13 13 11 12 13 10 11 11 12 14 13 15 10 10 9 10 7 8 6 6 6 5 4 4 3 5 4 2 7 6 4 7 8 9 8 9 11 12 11 12 14 14 15 15 15 15 13 12 12 13 15 17 17 16 16 16 15 14 12 11 11 12 13 14 15 15 14 13
28 27 23 23 23 23 22 21 20 19 18 18 16 19 19 17 16 15 16 14 11 13 13 13 13 13 15 16 14 9 7 8 9 7 6 5 5 5 5 5 5 4 6 6 5 7 7 8 8 8 9 11 11 11 12 12 12 13 13 14 15 16 17 16 16 15 15 16 18 19 17 17 17 16 15 14 13 12 13 14 14 16 16 15 14
28 27 23 23 24 23 23 22 21 20 19 19 17 18 19 18 18 16 17 16 13 14 15 16 16 15 13 13 11 13 10 10 9 6 5 6 5 5 5 5 6 6 6 6 7 7 8 9 8 8 9 10 11 11 12 13 12 13 11 13 15 15 15 17 19 18 17 16 17 20 19 18 18 17 16 16 15 15 14 15 15 16 16 16 16
27 26 22 22 24 23 23 22 21 20 19 19 18 17 19 17 18 18 16 17 17 16 16 17 17 14 12 11 11 15 13 10 9 7 7 6 5 4 5 6 7 6 5 7 8 8 8 9 8 9 10 11 12 12 13 14 14 14 12 13 16 16 16 17 18 19 19 18 18 20 19 18 19 18 17 17 18 17 17 17 17 18 16 16 16
27 25 23 23 25 24 23 23 22 21 19 19 18 17 18 16 17 19 15 16 20 18 17 17 14 12 11 9 11 14 11 9 9 8 6 5 5 5 7 7 7 6 6 8 8 9 9 10 10 10 12 12 12 11 12 12 13 13 13 15 16 17 17 16 16 17 18 20 20 20 19 19 20 19 19 19 20 19 18 17 17 18 17 17 17
26 23 22 24 25 25 23 23 22 20 19 19 18 17 17 17 17 17 15 16 19 19 18 15 11 11 12 8 11 11 9 9 8 7 6 6 6 7 7 6 5 5 7 9 8 8 9 10 10 9 11 10 10 10 10 11 12 12 13 14 16 17 17 17 16 17 17 18 19 20 19 19 20 20 21 20 20 20 19 18 18 18 18 18 18
27 24 24 26 26 25 25 24 22 21 20 17 18 20 17 17 16 14 15 17 18 18 15 11 10 12 13 10 10 10 9 8 7 6 7 7 5 5 5 5 5 5 7 7 6 6 7 7 7 8 8 8 8 8 9 11 11 12 12 13 14 15 16 17 17 17 18 17 17 18 18 20 22 21 21 21 21 21 20 19 19 19 18 18 19
26 26 25 27 27 26 26 25 23 23 23 19 17 19 16 14 13 11 14 16 14 12 11 11 12 13 12 10 11 10 8 8 6 6 7 6 5 5 5 6 5 5 5 5 4 5 6 6 6 7 7 7 8 7 9 10 10 13 13 13 15 15 15 16 16 16 18 18 17 18 19 21 22 21 20 21 22 23 21 19 19 19 18 18 19
26 26 25 26 27 26 26 24 22 22 22 21 17 17 16 14 13 10 11 11 9 9 10 11 12 13 9 8 10 9 8 7 6 6 6 5 5 4 4 4 3 3 3 3 4 4 4 5 6 7 7 8 8 7 9 10 11 13 13 13 15 16 17 17 18 18 18 19 19 21 22 22 22 21 21 21 22 22 20 19 19 19 19 19 19
26 28 27 26 24 23 22 19 18 18 19 20 16 14 16 14 12 9 9 9 9 10 11 10 11 10 6 6 7 7 6 6 5 5 5 4 3 3 4 3 3 2 3 4 4 3 4 5 6 7 8 9 9 9 10 11 12 12 13 13 14 15 16 17 18 18 18 19 19 20 22 22 22 22 21 20 21 21 20 19 19 19 19 20 20
26 27 26 25 22 21 19 16 16 17 16 18 15 12 14 13 11 11 10 10 9 9 9 9 9 8 6 5 5 4 4 5 5 4 3 3 2 3 3 3 3 3 3 3 3 3 4 5 6 7 8 9 10 10 11 12 13 13 13 14 14 15 15 15 15 16 16 16 17 17 19 21 21 22 20 20 20 20 20 20 19 20 20 20 20
24 25 24 23 22 20 18 15 16 17 15 16 15 14 14 13 13 11 10 9 8 7 7 7 5 4 4 3 3 2 3 4 4 3 3 2 2 2 3 3 3 3 3 2 2 3 4 6 7 7 8 9 10 10 11 12 13 13 14 14 14 15 15 15 15 15 15 15 16 16 17 19 20 21 20 20 20 20 21 21 19 20 20 21 20
21 24 21 20 21 19 17 16 16 15 14 13 14 15 14 14 13 10 10 10 8 7 7 6 4 4 4 3 2 2 2 3 3 3 3 3 3 2 3 3 3 3 2 2 2 4 5 6 7 8 8 8 9 10 11 12 13 14 14 14 15 17 17 16 15 14 14 15 15 14 14 15 16 18 19 19 20 20 21 21 20 20 21 21 20
19 21 20 19 19 18 18 18 16 14 12 13 15 15 14 13 11 9 10 9 8 7 7 9 7 5 4 6 5 4 3 3 3 2 3 3 2 2 3 3 3 3 3 3 4 5 6 6 7 8 8 8 9 10 11 12 14 14 15 17 17 16 16 15 16 15 14 15 15 15 14 14 14 15 17 19 20 20 20 21 20 19 21 22 21
19 18 19 20 19 19 19 20 18 13 13 15 16 15 13 12 10 8 8 9 9 8 9 10 8 7 7 8 7 4 4 4 3 4 4 3 2 3 3 3 3 3 4 4 5 5 6 6 7 8 8 9 9 10 11 13 13 13 16 18 17 15 15 15 16 15 14 15 17 18 17 16 16 14 15 18 20 20 19 20 20 19 19 20 22
17 16 19 20 21 21 21 20 17 14 16 17 16 15 14 12 10 9 10 10 9 8 9 9 7 7 8 10 8 5 5 6 6 6 5 4 4 4 4 3 4 4 5 5 5 6 7 7 8 9 9 9 9 10 11 13 13 14 14 15 16 18 17 12 11 14 17 18 17 17 17 16 16 16 14 16 18 19 19 19 19 19 19 19 21
15 16 19 20 23 24 21 18 17 17 20 19 16 15 14 12 11 11 11 9 8 8 8 7 6 6 7 9 7 6 7 7 6 6 4 4 5 4 4 5 5 5 5 4 5 6 7 8 8 9 10 10 9 9 9 11 13 14 14 14 15 16 14 11 15 21 18 16 16 17 18 17 17 17 17 16 16 18 19 20 20 21 21 20 21
15 17 19 21 24 22 19 17 19 21 21 19 17 16 15 13 12 12 12 10 8 7 7 6 6 6 6 6 4 4 5 5 4 4 4 4 4 4 4 5 4 5 5 5 5 6 6 7 8 9 9 9 10 10 10 9 10 11 14 16 13 10 13 18 23 23 17 15 17 19 19 18 18 18 19 18 17 16 18 20 21 21 22 22 22
17 19 20 23 23 19 18 19 21 21 20 18 16 15 15 14 13 13 12 10 8 7 8 8 7 6 3 2 2 3 4 4 4 3 3 4 4 4 5 5 5 4 6 7 6 7 7 6 8 9 8 8 10 12 12 10 9 10 12 15 14 13 18 21 21 21 22 22 19 17 19 20 20 21 21 20 19 18 19 20 22 22 22 23 24
18 20 21 22 20 18 19 21 21 21 20 18 16 15 14 14 13 13 11 10 9 9 8 8 7 5 2 2 5 5 3 3 4 3 3 5 5 5 6 7 6 3 5 8 7 7 9 8 9 8 8 9 10 12 13 13 12 11 10 13 15 16 18 19 20 21 25 27 24 21 21 21 21 22 23 23 22 22 22 22 23 23 23 24 24
19 20 22 22 21 21 21 22 22 21 21 19 17 16 14 14 14 13 13 12 11 9 8 7 6 6 5 5 5 3 2 4 6 6 6 8 9 8 8 8 8 6 4 4 4 7 10 11 11 9 9 9 10 11 12 13 14 14 13 13 15 16 16 17 19 20 21 26 28 27 24 22 21 22 23 24 24 24 24 24 23 23 24 25 25
20 20 22 23 23 23 22 22 22 20 20 19 17 16 15 14 14 14 13 12 10 9 7 7 8 7 7 7 5 3 4 8 9 9 10 11 11 10 9 8 7 7 4 2 4 8 9 9 9 10 10 11 11 12 13 13 14 15 15 15 15 16 17 16 17 18 19 22 26 28 28 27 25 23 23 23 25 25 24 25 24 23 23 25 26
21 21 23 23 23 24 24 23 21 19 18 17 16 15 14 13 13 13 12 10 10 10 9 10 9 8 7 6 7 8 9 9 9 11 12 14 12 8 7 6 4 3 3 4 6 8 7 7 8 9 10 10 10 11 13 14 14 14 15 16 16 17 18 19 17 17 19 21 23 26 27 27 26 26 24 22 23 24 24 25 24 24 23 23 25
20 21 23 22 22 24 25 23 20 19 18 16 16 16 15 13 13 13 12 11 11 10 9 9 7 5 4 5 7 9 10 10 10 11 11 11 8 4 5 5 4 4 5 6 7 8 8 8 8 9 7 6 8 9 11 12 12 13 15 15 16 17 18 19 20 20 22 22 23 26 28 27 26 28 26 23 21 22 23 24 25 25 25 23 23
Wind_Direction
190 192 179 177 178 168 165 156 146 132 120 126 133 136 132 130 129 126 126 123 120 116 115 117 120 120 116 109 105 102 99 95 90 91 94 94 95 95 94 92 90 87 84 80 75 69 65 68 72 71 71 71 70 69 64 58 60 71 84 88 85 75 59 45 38 42 51 59 71 88 87 76 75 86 86 85 76 67 71 70 64 57 63 67 63
184 179 180 171 173 171 167 158 150 135 122 128 135 136 132 130 131 129 129 124 119 115 116 119 120 118 114 110 105 102 100 97 93 96 99 98 95 93 93 91 90 84 78 73 65 59 59 66 68 67 65 63 61 56 51 49 57 74 96 106 94 79 66 58 62 67 70 70 71 74 74 76 79 85 88 88 82 77 74 66 62 60 64 65 60
187 175 175 166 170 172 168 160 151 137 126 129 134 136 133 132 132 132 128 122 118 116 117 118 118 115 112 110 107 103 101 100 100 101 102 100 95 93 92 90 87 80 74 65 58 58 64 68 64 62 59 57 56 49 49 56 67 78 90 98 91 83 79 76 74 70 67 65 65 63 59 69 77 84 87 85 81 75 71 62 61 61 62 62 60
195 178 171 165 165 169 170 160 153 139 129 131 134 135 134 134 133 130 125 121 118 117 117 117 118 115 113 113 111 107 106 105 105 105 105 102 99 96 94 90 84 77 70 62 66 72 71 67 63 61 57 56 52 47 52 62 71 79 87 92 90 86 84 80 73 67 63 59 58 53 46 61 75 82 88 85 84 75 68 62 60 59 60 60 57
193 175 169 165 162 167 170 159 154 140 132 134 134 135 134 134 132 128 124 121 119 119 119 118 119 118 117 116 115 113 111 111 108 109 109 107 105 100 96 90 83 78 68 69 83 85 77 69 67 64 57 53 48 50 54 65 75 82 89 91 92 91 86 79 73 69 66 61 55 45 31 48 72 81 92 90 88 81 75 68 64 64 60 58 52
190 172 168 164 162 164 167 162 152 141 135 135 136 135 133 133 130 127 125 122 122 123 122 121 120 120 120 119 120 119 117 116 114 114 112 114 110 101 96 90 86 78 68 82 94 89 82 75 70 63 54 50 49 55 59 69 79 87 91 92 94 94 87 79 74 69 68 65 60 53 19 36 63 74 85 86 87 84 81 76 68 65 59 55 49
183 171 166 164 163 161 167 162 150 143 137 137 138 134 132 132 130 128 126 125 126 125 124 123 123 123 123 124 126 125 124 121 119 118 115 116 111 101 96 91 89 78 75 96 102 95 88 80 70 61 57 56 57 62 69 77 84 91 92 93 95 93 87 81 75 69 69 68 66 63 359 30 58 64 74 77 80 81 82 78 68 62 54 47 39
178 174 167 165 163 161 166 161 151 144 139 139 137 135 134 134 133 131 128 128 128 127 127 125 126 126 127 129 130 129 127 125 123 121 118 115 103 95 95 93 92 82 90 106 109 102 95 86 74 67 69 67 67 70 78 85 90 95 95 94 96 93 87 82 79 76 74 72 78 79 336 31 61 57 65 67 68 66 66 71 63 53 42 33 29
175 178 169 165 163 161 165 161 152 143 141 139 137 137 135 135 134 131 131 130 130 131 131 129 130 130 132 135 134 133 128 127 128 128 127 121 109 105 104 102 101 98 110 119 118 109 101 93 84 80 79 75 74 79 86 91 96 100 100 99 98 93 86 82 81 81 79 78 106 121 18 45 59 52 56 52 54 42 37 54 55 41 26 22 20
167 175 168 165 162 160 165 162 153 144 141 137 137 138 136 136 134 133 133 132 133 135 134 133 135 136 139 140 140 136 133 134 134 139 136 125 120 119 122 117 118 122 128 132 127 116 109 100 95 91 86 82 83 88 93 97 101 104 104 103 98 90 84 80 77 76 75 71 121 136 47 32 35 40 43 37 42 31 27 40 46 31 19 14 7
162 172 166 165 161 158 164 161 153 144 138 136 138 138 136 136 136 136 134 135 137 138 138 137 140 144 146 145 143 138 136 138 136 137 126 119 120 124 132 128 123 127 136 138 131 124 118 110 104 98 93 91 91 94 98 101 104 106 107 106 99 91 86 81 76 76 71 59 91 143 22 31 26 36 40 38 43 35 31 29 32 22 14 3 357
165 172 164 163 158 156 161 160 152 141 138 138 138 140 140 139 140 139 137 138 139 141 142 142 148 152 153 151 148 142 137 136 133 128 119 117 119 122 123 120 119 125 137 139 133 128 123 118 113 106 101 99 101 102 103 104 106 110 113 112 103 96 90 86 81 80 78 70 74 352 14 25 22 32 28 24 31 25 23 18 354 327 333 328 330
167 166 164 162 155 154 159 157 150 141 139 140 141 144 144 144 143 140 140 141 141 146 146 148 154 156 158 157 153 147 142 141 132 125 121 120 116 116 113 116 120 126 136 141 140 135 130 128 121 115 112 110 109 110 110 110 110 115 121 117 108 101 96 92 86 82 83 84 304 327 8 355 8 3 328 347 351 351 336 323 296 290 296 303 307
167 163 165 161 154 151 155 154 147 142 142 143 145 147 148 148 145 142 142 143 144 148 151 156 160 161 162 161 161 161 161 151 133 128 122 121 117 113 113 116 122 130 138 146 148 144 140 136 129 123 123 122 118 117 118 117 117 120 123 117 108 103 98 94 89 85 85 90 261 324 17 356 7 347 332 354 343 345 329 323 311 298 292 291 292
165 162 165 162 153 147 150 150 145 143 143 144 148 150 152 151 146 143 143 144 147 151 156 162 164 168 169 170 175 176 173 156 139 132 121 117 114 112 115 121 127 133 142 148 150 148 145 142 136 132 134 133 127 125 125 123 124 124 124 117 110 105 101 100 96 89 74 62 283 315 11 355 3 349 346 358 351 351 341 338 326 315 307 299 293
164 161 165 163 153 147 148 147 144 144 145 146 149 151 153 153 148 145 143 145 149 154 160 166 169 172 175 179 184 179 174 167 153 138 126 116 110 110 114 124 131 134 143 150 152 152 150 149 144 141 145 144 136 134 132 130 129 127 128 121 115 113 107 104 101 98 99 79 286 299 355 349 353 348 345 347 349 349 348 345 331 327 320 314 308
169 166 166 165 154 149 149 147 146 145 146 147 148 151 154 154 149 147 147 148 152 158 164 170 174 176 180 183 182 177 175 171 160 144 134 124 112 109 112 122 131 135 144 150 155 157 156 156 152 152 155 155 148 144 140 136 134 130 124 117 116 114 110 105 104 111 128 154 276 292 332 337 341 340 340 340 345 346 344 344 334 332 327 323 316
170 172 170 166 156 152 153 151 148 147 147 146 147 152 156 155 151 150 152 153 156 164 170 176 180 182 186 187 180 175 176 172 162 153 144 136 122 112 115 121 126 134 143 151 158 161 162 161 160 164 166 169 164 158 154 145 140 131 122 119 116 110 107 105 104 98 109 194 262 287 313 321 334 335 335 336 340 341 340 342 337 333 330 326 318
164 172 171 167 160 155 157 155 152 151 149 149 151 153 156 157 153 153 156 157 160 168 175 180 183 184 186 181 173 168 174 176 169 163 156 146 128 121 122 122 123 129 142 153 159 165 168 168 171 175 177 183 182 180 175 166 157 139 133 129 121 114 110 106 100 91 141 235 263 282 300 314 326 328 331 332 334 336 335 339 338 335 331 326 320
148 156 161 164 163 159 158 158 155 154 154 154 154 154 157 158 155 155 157 159 163 171 174 175 180 179 167 145 136 137 154 183 192 188 177 167 147 139 128 120 124 124 138 155 162 167 170 174 178 183 189 192 199 205 204 199 202 176 161 153 145 129 121 121 105 95 246 265 278 284 297 315 321 326 328 325 328 329 330 333 336 335 332 327 321
143 145 151 158 165 164 160 159 158 158 160 160 158 157 159 158 157 157 158 162 167 173 173 170 167 152 137 127 122 120 100 61 216 209 200 198 174 147 130 120 124 132 144 154 167 174 176 180 182 188 195 196 209 216 226 232 244 253 249 246 217 214 180 152 112 108 252 273 283 287 300 314 313 321 323 320 326 327 325 328 334 335 334 331 324
147 149 153 164 170 163 164 163 160 164 164 165 164 161 162 161 160 161 162 165 170 173 166 153 138 129 128 124 123 121 94 3 291 249 216 208 203 163 135 114 123 158 164 167 175 188 192 195 194 197 202 207 220 232 242 240 256 271 277 280 275 281 272 268 158 170 248 272 277 282 292 305 308 316 320 320 325 328 326 324 330 336 337 334 328
152 155 159 174 171 153 166 168 165 171 167 170 171 165 165 165 164 165 162 163 168 166 158 147 137 138 135 128 133 125 98 303 329 311 261 183 197 170 111 68 305 279 214 218 204 210 218 224 229 225 225 227 237 257 247 241 271 289 292 287 286 282 271 279 265 207 269 275 272 276 281 294 302 311 317 320 324 329 328 324 330 337 336 333 331
157 158 163 176 161 152 167 168 167 171 166 173 176 171 170 169 169 168 164 163 164 162 160 155 153 162 159 151 145 125 182 250 210 263 271 160 127 94 37 0 337 324 328 316 292 245 236 248 261 269 268 263 262 271 265 276 291 295 296 292 283 272 265 271 267 250 274 273 272 277 279 287 296 306 313 317 323 327 329 327 330 333 333 330 330
161 160 165 172 158 161 171 168 167 164 162 167 171 175 174 172 172 171 167 163 164 167 169 169 171 176 174 164 155 166 197 239 225 231 272 106 75 50 29 7 348 339 352 336 299 261 324 291 264 285 298 297 267 260 0 291 286 292 294 291 284 275 267 258 262 267 272 271 276 279 278 283 287 294 306 314 319 323 326 327 328 329 328 328 330
162 161 168 169 161 168 171 166 165 162 165 159 164 175 172 168 172 176 170 165 166 171 173 178 184 179 173 163 187 216 195 192 256 236 77 93 36 19 16 2 345 1 4 350 327 308 336 329 300 319 326 325 309 311 335 273 276 289 292 294 297 288 270 255 256 263 270 272 275 277 276 278 282 285 296 307 310 315 319 321 324 324 326 329 331
160 161 168 166 163 168 166 165 163 163 166 158 162 164 160 166 175 178 171 171 170 170 176 177 196 191 175 177 205 220 163 161 253 216 138 193 186 229 279 306 318 338 326 343 351 293 318 337 314 317 327 330 322 302 279 261 266 276 282 290 293 286 273 263 260 258 265 271 272 275 276 275 278 279 286 296 301 308 312 315 318 319 324 328 330
162 164 166 165 165 165 165 166 163 167 166 161 162 150 153 172 182 181 172 182 175 170 189 183 207 207 176 193 217 203 140 170 228 184 169 198 178 193 207 240 262 203 253 283 228 252 273 274 266 280 292 289 285 281 274 266 262 266 274 280 278 276 273 263 258 257 260 270 274 278 280 278 275 273 279 288 296 301 304 309 312 315 319 322 326
165 166 165 167 167 164 167 167 168 172 168 164 159 149 161 183 190 187 174 187 184 173 197 192 208 222 187 198 212 174 147 190 200 176 183 204 201 204 201 237 262 222 227 248 243 244 248 250 244 241 253 255 254 265 275 274 266 261 265 275 276 274 274 267 264 262 257 264 273 277 278 277 275 273 276 283 291 296 297 302 306 308 310 315 321
167 168 166 168 166 167 168 168 173 175 174 166 153 156 172 186 192 183 172 189 194 183 199 197 204 223 203 202 195 157 170 204 194 193 202 206 218 212 205 234 260 247 237 257 262 254 249 257 260 250 254 260 256 252 259 267 271 267 260 267 270 264 265 267 269 265 260 263 267 271 275 275 276 275 275 279 286 290 293 296 299 299 304 311 314
169 169 165 168 168 169 169 170 176 177 179 164 154 173 177 185 194 176 176 197 193 187 200 203 204 210 206 208 184 159 173 198 198 207 207 208 223 230 239 244 252 251 249 259 263 263 261 265 268 265 268 274 272 263 258 258 262 266 263 264 264 260 260 263 264 259 262 270 266 266 272 275 276 276 274 277 283 287 289 292 293 294 300 306 306
169 169 167 170 169 170 172 173 177 179 177 159 162 184 178 189 199 176 181 193 184 189 200 204 200 196 212 206 166 159 173 186 197 209 203 200 219 240 247 241 243 248 250 256 267 275 274 276 278 277 279 284 285 278 274 270 266 263 263 267 268 268 269 268 267 264 271 277 273 272 275 274 272 272 274 277 280 282 283 287 288 289 293 297 298
167 170 168 171 171 170 174 176 179 181 171 160 170 178 177 194 194 181 184 180 186 198 198 197 182 185 216 201 158 165 181 187 198 207 200 200 216 231 239 246 249 254 259 266 277 278 277 281 283 280 281 292 295 287 287 285 279 271 267 271 273 273 274 272 271 273 279 277 275 280 282 279 274 269 272 275 277 279 278 280 282 282 285 289 294
168 170 169 169 171 172 176 178 181 180 162 161 181 176 181 195 184 184 186 183 200 201 190 187 171 190 220 213 183 178 183 191 199 207 206 206 223 233 236 242 246 263 271 277 286 283 288 290 290 294 294 299 297 291 292 293 291 286 280 276 275 277 275 273 273 275 279 278 280 285 285 287 284 278 277 277 276 278 276 275 275 276 279 283 288
169 168 169 169 172 175 178 181 183 178 162 165 188 178 178 189 175 180 192 194 199 182 185 188 178 203 220 205 188 180 183 192 194 208 215 214 222 222 218 224 239 271 274 282 299 291 295 301 305 310 311 307 302 295 293 298 297 291 287 280 278 283 278 272 273 273 275 278 282 283 281 284 285 284 285 282 277 276 273 271 271 271 272 275 281
168 167 170 171 173 177 177 182 182 173 166 167 177 177 177 175 163 183 208 197 168 166 204 203 192 211 210 177 175 177 185 190 193 207 221 226 222 214 228 247 263 278 280 295 303 295 298 307 310 311 314 314 313 306 298 298 295 292 294 291 287 288 284 278 277 274 272 273 275 276 277 279 280 285 288 284 278 274 270 268 267 266 266 270 275
171 171 172 171 172 175 174 180 174 163 169 166 166 182 176 154 149 189 212 187 172 189 208 207 204 208 189 168 171 175 185 188 193 205 220 228 222 233 254 275 286 282 297 303 301 302 300 303 310 314 316 317 316 311 304 303 303 304 307 307 305 300 293 288 285 282 279 275 274 273 275 279 281 285 287 280 274 273 276 274 266 263 263 268 272
173 172 172 171 170 172 171 177 165 156 168 161 160 172 155 146 163 189 192 184 198 209 209 214 212 203 188 179 169 164 174 178 184 193 210 213 206 238 252 273 290 290 297 299 306 306 298 303 309 313 318 320 318 315 310 308 311 313 312 312 313 310 307 303 297 295 293 288 285 280 276 280 283 285 285 280 275 276 285 283 268 261 262 267 270
173 171 171 173 172 171 169 170 159 157 163 157 159 156 146 163 181 185 184 186 201 206 212 224 226 225 218 201 171 152 161 171 181 190 199 199 198 231 251 273 286 292 298 301 306 298 299 309 312 317 322 322 319 318 316 313 314 315 314 313 312 311 310 310 307 304 303 301 297 291 282 279 282 284 285 284 282 281 286 286 273 265 266 268 270
170 169 168 169 169 168 162 158 154 153 154 151 152 151 157 176 178 183 188 186 188 187 201 210 209 231 241 246 215 178 194 188 184 201 206 208 213 239 265 284 297 302 300 298 297 295 302 309 314 319 324 325 325 324 320 315 314 316 318 317 316 315 314 316 315 312 311 310 308 305 297 288 285 286 286 288 287 283 282 282 276 271 270 269 269
169 168 165 162 161 160 153 150 148 141 142 149 152 158 170 178 177 185 184 180 181 180 198 197 185 193 231 262 243 198 211 215 203 222 228 226 225 257 283 297 306 306 305 309 314 312 311 315 316 320 326 327 326 324 319 316 318 321 319 316 316 318 322 322 321 320 317 317 320 318 314 307 300 290 285 286 287 282 277 278 281 279 274 269 267
172 170 165 162 159 156 152 150 150 145 157 164 161 167 173 172 174 177 175 180 184 188 201 196 186 187 207 242 241 203 211 232 234 240 241 240 252 275 288 307 312 308 310 312 314 311 312 314 312 315 319 317 319 322 318 318 321 319 313 314 319 325 326 320 317 321 322 320 321 317 313 308 305 300 287 282 284 282 280 280 283 283 278 271 267
175 172 166 164 158 156 155 155 157 162 169 166 163 170 169 165 167 168 174 179 182 191 196 197 198 198 211 233 233 202 208 228 232 234 238 241 258 274 284 300 305 307 312 315 315 314 311 307 307 311 314 313 316 318 316 317 319 317 313 315 320 322 326 328 317 315 316 315 316 314 311 308 306 307 297 284 283 285 286 283 279 280 279 274 270
174 171 166 161 158 160 159 157 164 167 164 162 164 169 168 164 157 157 166 167 173 181 182 197 212 208 218 227 220 203 205 218 226 230 239 247 255 269 285 297 304 307 308 311 314 313 312 313 315 317 318 317 315 312 311 313 316 319 316 314 318 318 322 324 313 311 316 318 317 314 311 309 306 305 300 292 288 286 286 285 280 279 277 274 274
173 170 166 161 161 162 158 160 167 166 164 166 171 173 174 171 160 156 162 162 169 174 177 197 199 193 211 219 215 214 208 214 229 232 248 263 270 276 277 286 294 297 298 296 297 298 301 315 320 318 318 315 311 310 311 312 312 315 313 312 317 314 309 313 314 314 316 317 315 313 310 308 305 302 299 295 293 287 283 284 282 278 275 273 272
173 171 168 165 167 164 161 169 171 167 168 172 175 176 176 172 166 162 160 159 163 168 183 195 187 182 198 220 233 249 242 235 235 235 254 268 275 272 266 268 274 298 310 294 290 300 303 308 307 305 307 306 308 311 314 313 307 310 314 310 308 303 304 312 314 312 312 313 313 311 309 310 308 304 300 296 294 293 288 284 281 278 276 275 273
174 174 170 168 171 166 166 172 170 167 169 172 171 172 173 169 164 162 158 157 156 161 181 191 192 199 198 223 241 248 250 234 220 211 234 249 248 246 250 257 257 275 309 303 314 320 307 295 287 293 303 303 304 306 305 306 305 306 308 304 303 303 305 307 308 308 310 311 312 312 311 311 309 305 303 301 298 297 293 288 283 280 278 276 275
176 173 169 169 171 169 168 171 169 167 167 168 168 169 173 170 164 163 162 159 155 158 177 180 183 199 202 215 228 224 222 227 219 210 217 234 238 242 251 258 257 250 262 301 326 301 285 281 280 285 293 292 292 294 296 301 304 303 299 298 301 303 304 303 304 306 304 304 308 313 314 314 310 304 303 304 303 300 298 294 291 287 281 278 277
178 172 168 168 170 168 166 168 168 164 163 165 167 167 171 172 169 167 163 159 157 158 163 159 168 188 196 201 183 168 234 241 237 233 234 243 246 247 253 255 256 257 255 258 265 268 275 282 280 276 276 277 282 285 287 290 292 294 297 299 299 302 306 305 304 306 303 301 305 310 313 314 312 308 306 307 306 305 301 298 297 292 284 280 278
178 172 168 168 169 165 161 164 164 159 159 161 161 162 166 167 169 165 155 151 154 159 161 156 168 186 190 200 191 202 235 249 257 256 249 252 255 255 258 255 255 267 270 259 250 250 257 264 267 268 271 279 287 286 285 288 292 299 305 305 303 305 309 308 306 306 304 302 303 304 307 310 309 307 307 307 306 306 303 299 297 296 291 286 281
176 169 167 168 168 161 159 161 160 155 156 159 156 158 162 161 163 159 149 147 152 164 173 160 159 178 188 225 226 229 249 264 271 268 261 256 248 243 260 249 232 241 249 256 253 246 248 253 258 264 271 288 298 299 298 300 303 304 303 300 298 298 300 303 304 305 304 303 303 302 302 304 305 304 306 305 302 303 302 299 299 299 296 293 288